Simultaneous Nadir Overpasses (SNOs) Predictions

Prediction of SNOs between GOES-16 and METOP-C Satellite Orbit:

Table of predicted SNOs for the next 14.0 days since TLE Epoch: 12/31/2022
Index Date Time (GOES-16) GOES-16 Lat,Lon METOP-C Lat,Lon Distance(km) Time Diff (sec)
1 01/02/2023 14:28:25 -0.03, -75.21 -0.09, -74.82 43.26 80
2 01/04/2023 02:50:05 0.03, -75.20 -0.90, -79.42 480.70 80
3 01/05/2023 02:26:46 0.03, -75.21 0.22, -74.43 89.26 80
4 01/06/2023 14:48:16 -0.03, -75.23 0.84, -78.97 426.81 80
5 01/07/2023 14:24:56 -0.03, -75.24 -0.30, -73.98 143.69 80
6 01/09/2023 02:46:37 0.02, -75.25 -0.71, -78.58 379.17 80
7 01/10/2023 02:23:17 0.02, -75.26 0.43, -73.58 191.73 80
8 01/11/2023 14:44:48 -0.02, -75.30 0.60, -78.14 322.85 80
9 01/12/2023 14:21:27 -0.02, -75.32 -0.48, -73.13 248.64 80
10 01/14/2023 02:43:07 0.01, -75.33 -0.53, -77.73 272.96 80
